Weather History for CYYF - October, 2012

Change the Weather History Date:

Friday, October 19, 2012

  Actual Average Record
Temperature  
Mean Temperature 56 °F -  
Max Temperature 61 °F 49 °F 69 °F (2014)
Min Temperature 51 °F 33 °F 30 °F (1996)
Degree Days  
Heating Degree Days 9    
Growing Degree Days 6 (Base 50)    
Moisture  
Dew Point 38 °F    
Average Humidity 51    
Maximum Humidity 67    
Minimum Humidity 23    
Precipitation  
Precipitation 0.01 in 0.03 in - ()
Sea Level Pressure  
Sea Level Pressure 29.62 in    
Wind  
Wind Speed 14 mph ()    
Max Wind Speed 28 mph    
Max Gust Speed 39 mph    
Visibility 15.0 miles    
Events Rain    
Averages and records for this station are not official NWS values.
T = Trace of Precipitation, MM = Missing Value Source: Averaged Metar Reports

Daily Weather History Graph

Daily Weather History Graph

Search for Another Location

Airport or City:

Trip Planner

Search our weather history database for the weather conditions in past years. The results will help you decide how hot, cold, wet, or windy it might be!

Date:

Astronomy

Oct. 19, 2012 Rise Set
Actual Time 7:26 AM PDT 5:58 PM PDT
Civil Twilight 6:54 AM PDT 6:31 PM PDT
Nautical Twilight 6:17 AM PDT 7:08 PM PDT
Astronomical Twilight 5:40 AM PDT 7:45 PM PDT
Moon 12:33 PM PDT (10/19) 9:24 PM PDT (10/19)
Length of Visible Light 11h 37m
Length of Day
10h 32m
Waxing Crescent, 24% of the Moon is Illuminated
Oct 19
Waxing Crescent
Oct 21
First Quarter
Oct 29
Full
Nov 6
Last Quarter
Nov 13
New

Hourly Weather History & Observations

Time (PDT) Temp. Dew Point Humidity Pressure Visibility Wind Dir Wind Speed Gust Speed Precip Events Conditions
12:00 AM 57.2 °F 33.8 °F 41% 29.75 in 15.0 mi SSW 13.8 mph 21.9 mph N/A   Overcast
1:00 AM 57.2 °F 33.8 °F 41% 29.74 in 15.0 mi SSW 13.8 mph 23.0 mph N/A   Overcast
2:00 AM 57.2 °F 35.6 °F 44% 29.72 in 15.0 mi South 25.3 mph - N/A   Overcast
3:00 AM 57.2 °F 35.6 °F 44% 29.69 in 15.0 mi South 27.6 mph 39.1 mph N/A   Mostly Cloudy
4:00 AM 55.4 °F 37.4 °F 51% 29.69 in 15.0 mi South 20.7 mph 33.4 mph N/A   Mostly Cloudy
5:00 AM 54 °F 37 °F 42% 29.68 in 15 mi South 19.6 mph - -   Partly Cloudy
5:00 AM 53.6 °F 37.4 °F 54% 29.68 in 15.0 mi South 18.4 mph 29.9 mph N/A   Mostly Cloudy
6:00 AM 53.6 °F 37.4 °F 54% 29.68 in 15.0 mi South 18.4 mph 25.3 mph N/A   Scattered Clouds
7:00 AM 53.6 °F 37.4 °F 54% 29.69 in 15.0 mi South 15.0 mph 23.0 mph N/A   Mostly Cloudy
8:00 AM 53.6 °F 39.2 °F 58% 29.68 in 15.0 mi South 17.3 mph 24.2 mph N/A   Overcast
9:00 AM 53.6 °F 39.2 °F 58% 29.68 in 15.0 mi South 17.3 mph 23.0 mph N/A   Overcast
10:00 AM 53.6 °F 41.0 °F 62% 29.68 in 15.0 mi South 15.0 mph - N/A   Overcast
11:00 AM 55 °F 40 °F 46% 29.69 in 47 mi South 12.7 mph - -   Overcast
11:00 AM 55.4 °F 41.0 °F 58% 29.69 in - South 13.8 mph - N/A   Overcast
12:00 PM 55.4 °F 42.8 °F 63% 29.67 in 15.0 mi SSE 13.8 mph - N/A   Overcast
1:00 PM 57.2 °F 44.6 °F 63% 29.65 in 15.0 mi SSE 15.0 mph - N/A   Mostly Cloudy
2:00 PM 57.2 °F 44.6 °F 63% 29.61 in 15.0 mi SSE 18.4 mph - N/A   Mostly Cloudy
3:00 PM 60.8 °F 44.6 °F 55% 29.58 in 15.0 mi South 13.8 mph 20.7 mph N/A   Mostly Cloudy
4:00 PM 60.8 °F 44.6 °F 55% 29.57 in 15.0 mi South 11.5 mph 18.4 mph N/A   Mostly Cloudy
5:00 PM 60 °F 46 °F 49% 29.54 in 15 mi SSE 10.4 mph - -   Mostly Cloudy
5:00 PM 60.8 °F 46.4 °F 59% 29.54 in 15.0 mi SSE 9.2 mph - N/A   Mostly Cloudy
6:00 PM 57.2 °F 44.6 °F 63% 29.53 in 15.0 mi ENE 3.5 mph - N/A   Mostly Cloudy
6:46 PM 57.2 °F 44.6 °F 63% 29.53 in 15.0 mi SE 3.5 mph - N/A Rain Light Rain Showers
7:00 PM 57.2 °F 46.4 °F 67% 29.53 in 15.0 mi Calm Calm - N/A   Mostly Cloudy
7:27 PM 57.2 °F 41.0 °F 55% 29.55 in 15.0 mi NNW 5.8 mph - N/A Rain Light Rain Showers
8:00 PM 55.4 °F 41.0 °F 58% 29.56 in 15.0 mi NNW 9.2 mph - N/A   Mostly Cloudy
8:34 PM 57.2 °F 35.6 °F 44% 29.56 in 15.0 mi WNW 21.9 mph 28.8 mph N/A   Mostly Cloudy
9:00 PM 57.2 °F 33.8 °F 41% 29.55 in 15.0 mi WNW 9.2 mph 21.9 mph N/A   Mostly Cloudy
9:45 PM 55.4 °F 24.8 °F 31% 29.56 in 15.0 mi WSW 25.3 mph 33.4 mph N/A   Mostly Cloudy
10:00 PM 55.4 °F 24.8 °F 31% 29.55 in 15.0 mi SW 15.0 mph 21.9 mph N/A   Mostly Cloudy
11:00 PM 54 °F 27 °F 23% 29.57 in 15 mi NNW 3.5 mph - -   Partly Cloudy
11:00 PM 53.6 °F 26.6 °F 35% 29.57 in 15.0 mi Variable 6.9 mph - N/A   Mostly Cloudy